FW6034 Truro MA US current weather conditions

sailwx.info

Wind from 217 at 13 knots gusting 24

Air temperature 26.1° C
Dewpoint 21.3° C

Last reported at 2020-Aug-09 20:07 UTC.
Time now 2020-Aug-09 20:58 UTC

Location: N 41°59' W 070°01'.
View on Google Maps.

See reports from other nearby stations

  
Tides and Currents Weather Stations Pressure Air Temp Water Temp Dewpoint Dewpoint Depression Visibility Wind Speed Wind Dir Waves Ship Positions
date/time (UTC)wind fromknots sea level pressurealtimeterstation pressurevisibilityair tempwater tempwave heightnotes
2020-Aug-09 20:07 217 13 gusting 24 26.1
2020-Aug-09 20:02 209 14 gusting 25 26.1
2020-Aug-09 19:57 211 15 gusting 26 26.1
2020-Aug-09 19:52 207 15 gusting 22 26.7
2020-Aug-09 19:47 215 12 gusting 21 26.7
2020-Aug-09 19:42 201 13 gusting 22 26.7
2020-Aug-09 19:37 203 14 gusting 23 26.7
2020-Aug-09 19:32 215 15 gusting 24 26.7
2020-Aug-09 19:27 217 13 gusting 22 27.2
2020-Aug-09 19:23 211 13 gusting 24 27.2
2020-Aug-09 19:18 211 13 gusting 21 27.2
2020-Aug-09 19:13 207 13 gusting 21 27.2
2020-Aug-09 19:08 221 15 gusting 20 27.8
2020-Aug-09 19:03 207 13 gusting 22 27.8
2020-Aug-09 18:58 217 9 gusting 16 27.8
2020-Aug-09 18:53 219 13 gusting 20 27.2
2020-Aug-09 18:48 191 14 gusting 21 27.8
2020-Aug-09 18:43 193 16 gusting 20 27.8
2020-Aug-09 18:39 193 16 gusting 20 27.8
2020-Aug-09 18:34 189 13 gusting 19 28.3
2020-Aug-09 18:29 185 11 gusting 22 28.3
2020-Aug-09 18:24 203 13 gusting 19 28.9
2020-Aug-09 18:19 177 10 gusting 19 28.9
2020-Aug-09 18:14 171 6 gusting 15 29.4
2020-Aug-09 18:09 203 7 gusting 19 29.4
2020-Aug-09 18:05 193 7 gusting 15 28.9
2020-Aug-09 17:59 207 9 gusting 15 28.9
2020-Aug-09 17:54 205 9 gusting 15 28.9
2020-Aug-09 17:49 233 6 gusting 14 28.9
2020-Aug-09 17:44 215 11 gusting 14 28.9
2020-Aug-09 17:39 179 7 gusting 13 28.9
2020-Aug-09 17:34 185 6 gusting 14 28.9
2020-Aug-09 17:29 237 4 gusting 14 28.9
2020-Aug-09 17:24 185 7 gusting 14 28.9
2020-Aug-09 17:19 171 7 gusting 14 28.3
2020-Aug-09 17:14 173 10 gusting 17 28.3
2020-Aug-09 17:09 185 3 gusting 14 28.3
2020-Aug-09 17:04 253 0 gusting 15 28.3
2020-Aug-09 16:59 179 8 gusting 13 28.3
2020-Aug-09 16:54 179 2 gusting 11 28.9
2020-Aug-09 16:49 211 4 gusting 15 28.9
2020-Aug-09 16:44 191 0 gusting 10 29.4
2020-Aug-09 16:39 251 29.4
2020-Aug-09 16:34 233 4 gusting 10 28.9
2020-Aug-09 16:30 221 4 gusting 13 28.3
2020-Aug-09 16:24 185 9 gusting 13 28.3
2020-Aug-09 16:19 215 7 gusting 12 27.8
2020-Aug-09 16:14 199 7 gusting 13 27.8
2020-Aug-09 16:09 185 9 gusting 12 27.8
2020-Aug-09 16:04 217 6 gusting 13 27.8
2020-Aug-09 15:59 213 6 gusting 12 27.8
2020-Aug-09 15:54 233 4 gusting 12 27.8
2020-Aug-09 15:49 213 6 gusting 13 27.2
2020-Aug-09 15:44 249 6 gusting 13 27.2
2020-Aug-09 15:39 209 6 gusting 12 27.2
2020-Aug-09 15:34 243 4 gusting 12 27.2
2020-Aug-09 15:29 197 7 gusting 13 27.2
2020-Aug-09 15:24 213 2 gusting 11 27.2
2020-Aug-09 15:19 191 0 gusting 11 26.7
2020-Aug-09 15:14 199 7 gusting 11 26.7
2020-Aug-09 15:10 243 3 gusting 11 26.7
2020-Aug-09 15:00 223 2 gusting 13 26.1
2020-Aug-09 14:55 227 9 gusting 12 26.1
2020-Aug-09 14:50 239 4 gusting 13 26.1
2020-Aug-09 14:45 239 6 gusting 12 25.6
2020-Aug-09 14:40 235 9 gusting 12 25.6
2020-Aug-09 14:35 237 6 gusting 12 26.1
2020-Aug-09 14:30 233 7 gusting 13 25.6
2020-Aug-09 14:25 249 8 gusting 13 25.6
2020-Aug-09 14:20 247 9 gusting 13 25.6
2020-Aug-09 14:15 227 7 gusting 16 25.0
2020-Aug-09 14:10 227 8 gusting 15 25.0
2020-Aug-09 14:05 237 11 gusting 16 24.4
2020-Aug-09 14:00 239 10 gusting 16 24.4
2020-Aug-09 13:55 257 8 gusting 15 24.4
2020-Aug-09 13:50 231 10 gusting 15 24.4
2020-Aug-09 13:45 239 12 gusting 17 23.9
2020-Aug-09 13:40 223 9 gusting 14 23.9
2020-Aug-09 13:35 227 9 gusting 13 23.9
2020-Aug-09 13:30 229 9 gusting 15 23.3
2020-Aug-09 13:25 233 10 gusting 16 23.9
2020-Aug-09 13:20 227 10 gusting 17 23.3
2020-Aug-09 13:15 231 12 gusting 15 23.3
2020-Aug-09 13:10 231 10 gusting 14 23.3
2020-Aug-09 13:05 235 5 gusting 13 23.3
2020-Aug-09 13:00 251 9 gusting 13 23.3
2020-Aug-09 12:55 225 9 gusting 13 23.3
2020-Aug-09 12:50 221 11 gusting 14 22.8
2020-Aug-09 12:45 217 7 gusting 13 22.8
2020-Aug-09 12:40 229 7 gusting 13 22.8
2020-Aug-09 12:35 233 8 gusting 13 22.8
2020-Aug-09 12:31 229 6 gusting 13 22.8
2020-Aug-09 12:26 233 8 gusting 16 22.2
2020-Aug-09 12:21 233 10 gusting 16 21.7
2020-Aug-09 12:16 241 10 gusting 16 21.7
2020-Aug-09 12:11 233 10 gusting 17 21.7
2020-Aug-09 12:06 229 10 gusting 16 21.7
2020-Aug-09 12:01 239 7 gusting 13 21.7
2020-Aug-09 11:56 243 8 gusting 13 21.7
2020-Aug-09 11:51 229 7 gusting 14 21.7
2020-Aug-09 11:46 241 9 gusting 13 21.7
2020-Aug-09 11:41 229 6 gusting 12 21.1
2020-Aug-09 11:36 247 4 gusting 11 21.1
2020-Aug-09 11:31 237 6 gusting 12 21.1
2020-Aug-09 11:26 241 7 gusting 11 21.1
2020-Aug-09 11:21 231 6 gusting 12 20.6
2020-Aug-09 11:17 229 7 gusting 12 20.6
2020-Aug-09 11:12 229 2 gusting 11 20.6
2020-Aug-09 11:07 231 7 gusting 10 20.6
2020-Aug-09 11:02 237 1 gusting 10 20.6
2020-Aug-09 10:57 241 3 gusting 11 20.0
2020-Aug-09 10:52 241 7 gusting 12 20.0
2020-Aug-09 10:47 237 6 gusting 10 20.0
2020-Aug-09 10:43 241 5 gusting 11 20.0
2020-Aug-09 10:38 243 7 gusting 11 19.4
2020-Aug-09 10:33 239 8 gusting 12 19.4
2020-Aug-09 10:28 233 5 gusting 10 19.4
2020-Aug-09 10:23 233 7 gusting 11 19.4
2020-Aug-09 10:19 233 6 gusting 11 19.4
2020-Aug-09 10:14 235 6 gusting 11 19.4
2020-Aug-09 10:09 237 5 gusting 12 18.9
2020-Aug-09 10:04 235 6 gusting 12 18.9
2020-Aug-09 09:59 235 6 gusting 10 18.9
2020-Aug-09 09:54 233 6 gusting 10 18.9
2020-Aug-09 09:49 237 6 gusting 11 18.9
2020-Aug-09 09:44 237 6 gusting 11 18.9
2020-Aug-09 09:39 241 6 gusting 10 18.9
2020-Aug-09 09:34 239 6 gusting 11 18.9
2020-Aug-09 09:29 241 6 gusting 11 18.9
2020-Aug-09 09:24 237 6 gusting 11 18.9
2020-Aug-09 09:19 235 6 gusting 11 18.9
2020-Aug-09 09:14 235 7 gusting 11 18.9
2020-Aug-09 09:09 239 5 gusting 11 18.9
2020-Aug-09 09:04 231 7 gusting 12 18.9
2020-Aug-09 08:59 227 3 gusting 10 18.9
2020-Aug-09 08:54 223 7 gusting 11 18.9
2020-Aug-09 08:49 231 5 gusting 10 18.9
2020-Aug-09 08:40 227 5 gusting 10 18.9
2020-Aug-09 08:35 227 6 gusting 10 18.9
2020-Aug-09 08:30 227 5 gusting 9 18.9
2020-Aug-09 08:25 225 7 gusting 11 18.9
2020-Aug-09 08:20 229 5 gusting 10 18.9
2020-Aug-09 08:15 229 6 gusting 12 18.9
2020-Aug-09 08:10 231 7 gusting 11 18.9
2020-Aug-09 08:05 231 9 gusting 13 18.9
2020-Aug-09 07:59 233 8 gusting 12 18.9
2020-Aug-09 07:54 233 6 gusting 11 18.9
2020-Aug-09 07:49 233 6 gusting 12 18.9
2020-Aug-09 07:44 227 4 gusting 11 18.9
2020-Aug-09 07:39 229 7 gusting 11 18.9
2020-Aug-09 07:34 237 6 gusting 13 18.9
2020-Aug-09 07:29 237 8 gusting 13 18.9
2020-Aug-09 07:24 235 9 gusting 13 18.9
2020-Aug-09 07:19 235 10 gusting 15 18.9
2020-Aug-09 07:14 239 10 gusting 14 18.9
2020-Aug-09 07:09 235 10 gusting 14 18.9
2020-Aug-09 07:04 231 12 gusting 15 19.4
2020-Aug-09 06:59 231 11 gusting 15 18.9
2020-Aug-09 06:54 237 12 gusting 15 18.9
2020-Aug-09 06:49 239 11 gusting 15 18.9
2020-Aug-09 06:44 235 11 gusting 15 18.9
2020-Aug-09 06:35 237 11 gusting 15 19.4
2020-Aug-09 06:31 235 11 gusting 16 19.4
2020-Aug-09 06:26 237 10 gusting 15 19.4
2020-Aug-09 06:21 241 13 gusting 19 19.4
2020-Aug-09 06:16 237 10 gusting 15 19.4
2020-Aug-09 06:11 239 11 gusting 16 19.4
2020-Aug-09 06:06 235 11 gusting 13 19.4
2020-Aug-09 06:01 235 10 gusting 14 19.4
2020-Aug-09 05:56 237 10 gusting 14 19.4
2020-Aug-09 05:51 235 11 gusting 15 19.4
2020-Aug-09 05:46 237 10 gusting 15 19.4
2020-Aug-09 05:41 237 11 gusting 16 19.4
2020-Aug-09 05:36 235 11 gusting 15 19.4
2020-Aug-09 05:31 235 12 gusting 16 19.4
2020-Aug-09 05:26 237 12 gusting 18 19.4
2020-Aug-09 05:21 237 11 gusting 14 19.4
2020-Aug-09 05:16 237 10 gusting 15 19.4
2020-Aug-09 05:11 237 11 gusting 15 19.4
2020-Aug-09 05:06 237 10 gusting 14 19.4
2020-Aug-09 05:01 235 10 gusting 14 19.4
2020-Aug-09 04:56 235 10 gusting 14 19.4
2020-Aug-09 04:51 235 10 gusting 13 19.4
2020-Aug-09 04:47 235 9 gusting 13 19.4
2020-Aug-09 04:41 235 9 gusting 14 19.4
2020-Aug-09 04:36 233 8 gusting 13 18.9
2020-Aug-09 04:31 233 9 gusting 13 18.9
2020-Aug-09 04:26 229 8 gusting 13 18.9
2020-Aug-09 04:21 229 9 gusting 13 18.9
2020-Aug-09 04:16 227 8 gusting 12 18.9
2020-Aug-09 04:11 229 6 gusting 12 18.9
2020-Aug-09 04:06 229 6 gusting 11 18.9
2020-Aug-09 04:01 227 7 gusting 12 18.9
2020-Aug-09 03:56 231 7 gusting 12 18.9
2020-Aug-09 03:51 231 6 gusting 11 18.9
2020-Aug-09 03:46 227 7 gusting 13 18.9
2020-Aug-09 03:38 229 7 gusting 13 19.4
2020-Aug-09 03:33 227 6 gusting 10 18.9
2020-Aug-09 03:28 231 5 gusting 11 19.4
2020-Aug-09 03:23 233 6 gusting 10 19.4
2020-Aug-09 03:18 229 6 gusting 11 19.4
2020-Aug-09 03:13 227 3 gusting 11 19.4
2020-Aug-09 03:08 227 8 gusting 12 19.4
2020-Aug-09 03:03 223 7 gusting 12 19.4
2020-Aug-09 02:58 225 8 gusting 14 19.4
2020-Aug-09 02:53 221 9 gusting 13 19.4
2020-Aug-09 02:48 227 7 gusting 13 19.4
2020-Aug-09 02:43 221 10 gusting 14 19.4
2020-Aug-09 02:38 221 8 gusting 12 19.4
2020-Aug-09 02:34 223 6 gusting 13 18.9
2020-Aug-09 02:29 223 8 gusting 12 18.9
2020-Aug-09 02:24 229 4 gusting 10 18.9
2020-Aug-09 02:19 221 6 gusting 9 18.9
2020-Aug-09 02:14 215 6 gusting 11 18.9
2020-Aug-09 02:09 219 3 gusting 8 18.9
2020-Aug-09 02:04 215 7 gusting 10 18.9
2020-Aug-09 01:59 211 7 gusting 10 18.9
2020-Aug-09 01:54 215 6 gusting 8 18.9
2020-Aug-09 01:49 217 4 gusting 9 18.9
2020-Aug-09 01:44 209 6 gusting 11 18.9
2020-Aug-09 01:39 211 7 gusting 11 18.9
2020-Aug-09 01:34 211 7 gusting 12 18.9
2020-Aug-09 01:29 205 7 gusting 11 18.9
2020-Aug-09 01:24 197 6 gusting 10 18.9
2020-Aug-09 01:19 199 6 gusting 10 18.9
2020-Aug-09 01:14 197 6 gusting 11 18.9
2020-Aug-09 01:09 203 7 gusting 10 18.9
2020-Aug-09 01:04 195 6 gusting 9 18.9
2020-Aug-09 00:59 191 4 gusting 9 18.9
2020-Aug-09 00:54 189 2 gusting 8 19.4
2020-Aug-09 00:50 197 3 gusting 7 19.4
2020-Aug-09 00:40 187 5 gusting 8 19.4
2020-Aug-09 00:35 185 4 gusting 7 19.4
2020-Aug-09 00:30 181 5 gusting 8 19.4
2020-Aug-09 00:25 187 5 gusting 8 19.4
2020-Aug-09 00:20 175 5 gusting 8 19.4
2020-Aug-09 00:15 169 3 gusting 9 19.4
2020-Aug-09 00:10 165 5 gusting 8 19.4
2020-Aug-08 23:59 163 5 gusting 9 20.0
2020-Aug-08 23:54 165 5 gusting 9 20.0
2020-Aug-08 23:49 163 4 gusting 9 20.0
2020-Aug-08 23:44 157 7 gusting 10 20.0
2020-Aug-08 23:39 151 7 gusting 9 20.0
2020-Aug-08 23:34 149 6 gusting 8 20.6
2020-Aug-08 23:29 143 4 gusting 7 20.6
2020-Aug-08 23:24 143 5 gusting 8 20.6
2020-Aug-08 23:19 141 20.6
2020-Aug-08 23:14 153 20.6
2020-Aug-08 23:09 141 2 gusting 7 21.1
2020-Aug-08 23:04 153 2 gusting 8 21.1
2020-Aug-08 23:00 163 1 gusting 8 21.1
2020-Aug-08 22:55 161 21.1
2020-Aug-08 22:50 141 2 gusting 8 21.1
2020-Aug-08 22:40 137 6 gusting 8 21.1
2020-Aug-08 22:30 131 0 gusting 6 21.7
2020-Aug-08 22:25 129 0 gusting 6 21.7
2020-Aug-08 22:20 137 0 gusting 6 21.7
2020-Aug-08 22:10 133 22.2
2020-Aug-08 22:05 129 0 gusting 7 22.8
2020-Aug-08 22:00 123 0 gusting 6 22.8
2020-Aug-08 21:50 127 0 gusting 6 23.3
2020-Aug-08 21:45 123 0 gusting 6 23.3
2020-Aug-08 21:35 123 0 gusting 6 22.8
2020-Aug-08 21:31 135 2 gusting 6 22.8
2020-Aug-08 21:26 131 0 gusting 6 23.9
2020-Aug-08 21:21 121 24.4
2020-Aug-08 21:16 111 24.4
2020-Aug-08 21:11 113 25.0
2020-Aug-08 21:06 107 25.0
2020-Aug-08 21:01 097 25.6
2020-Aug-08 20:56 087 25.6
2020-Aug-08 20:51 079 26.1
2020-Aug-08 20:46 089 25.6
2020-Aug-08 20:41 093 25.6
2020-Aug-08 20:36 093 25.6
2020-Aug-08 20:31 095 26.1
2020-Aug-08 20:27 095 0 gusting 6 26.1
2020-Aug-08 20:22 079 26.1
2020-Aug-08 20:17 073 26.1
2020-Aug-08 20:12 083 0 gusting 6 26.1
2020-Aug-08 20:07 079 26.1
2020-Aug-08 20:02 071 26.1
2020-Aug-08 19:57 069 25.6
2020-Aug-08 19:52 065 1 gusting 6 25.0
2020-Aug-08 19:47 055 1 gusting 6 25.0
2020-Aug-08 19:42 055 0 gusting 7 25.0
2020-Aug-08 19:37 057 5 gusting 7 25.6
2020-Aug-08 19:32 057 5 gusting 7 26.1
2020-Aug-08 19:27 061 5 gusting 7 26.7
2020-Aug-08 19:22 063 6 gusting 8 26.1
2020-Aug-08 19:17 063 5 gusting 7 26.7
2020-Aug-08 19:12 063 3 gusting 7 26.7
2020-Aug-08 19:07 063 1 gusting 7 26.1
2020-Aug-08 19:02 067 0 gusting 6 26.1
2020-Aug-08 18:57 069 0 gusting 6 26.7
2020-Aug-08 18:52 081 26.1
2020-Aug-08 18:47 083 0 gusting 6 26.1
2020-Aug-08 18:42 067 25.6
2020-Aug-08 18:37 077 26.1
2020-Aug-08 18:32 101 0 gusting 6 26.1
2020-Aug-08 18:27 095 0 gusting 6 26.1
2020-Aug-08 18:22 083 0 gusting 6 26.1
2020-Aug-08 18:17 091 0 gusting 7 26.1
2020-Aug-08 18:12 097 0 gusting 7 26.1
2020-Aug-08 18:07 097 1 gusting 8 26.1
2020-Aug-08 18:02 107 3 gusting 7 25.6
2020-Aug-08 17:57 091 0 gusting 6 25.6
2020-Aug-08 17:52 093 0 gusting 7 25.0
2020-Aug-08 17:47 089 0 gusting 7 25.0
2020-Aug-08 17:41 079 0 gusting 6 25.0
2020-Aug-08 17:36 083 0 gusting 6 25.0
2020-Aug-08 17:31 087 23.9
2020-Aug-08 17:26 067 22.8
2020-Aug-08 17:21 061 23.3
2020-Aug-08 17:16 051 0 gusting 6 23.3
2020-Aug-08 17:11 037 23.9
2020-Aug-08 17:06 029 23.9
2020-Aug-08 17:01 029 0 gusting 6 23.9
2020-Aug-08 16:56 033 0 gusting 6 23.3
2020-Aug-08 16:51 033 23.3
2020-Aug-08 16:46 041 22.8
2020-Aug-08 16:41 047 23.3
2020-Aug-08 16:36 041 0 gusting 6 23.3
2020-Aug-08 16:31 051 1 gusting 7 23.3
2020-Aug-08 16:26 047 23.9
2020-Aug-08 16:21 051 23.9
2020-Aug-08 16:16 041 0 gusting 7 23.9
2020-Aug-08 16:11 037 24.4
2020-Aug-08 16:07 035 0 gusting 8 24.4
2020-Aug-08 16:02 031 0 gusting 6 23.9
2020-Aug-08 15:57 031 23.9
2020-Aug-08 15:52 031 23.9
2020-Aug-08 15:47 025 0 gusting 6 23.9
2020-Aug-08 15:42 025 0 gusting 7 23.9
2020-Aug-08 15:37 027 0 gusting 7 23.9
2020-Aug-08 15:32 029 1 gusting 8 23.9
2020-Aug-08 15:27 033 0 gusting 7 23.3
2020-Aug-08 15:22 023 0 gusting 9 22.8
2020-Aug-08 15:17 025 5 gusting 8 22.2
2020-Aug-08 15:12 023 4 gusting 8 22.2
2020-Aug-08 15:07 027 2 gusting 8 22.2
2020-Aug-08 15:02 027 0 gusting 7 22.2
2020-Aug-08 14:57 031 3 gusting 8 22.2
2020-Aug-08 14:52 037 0 gusting 7 22.2
2020-Aug-08 14:47 035 0 gusting 7 22.2
2020-Aug-08 14:42 051 3 gusting 8 21.7
2020-Aug-08 14:37 045 0 gusting 6 21.7
2020-Aug-08 14:32 035 5 gusting 8 21.7
2020-Aug-08 14:27 031 1 gusting 6 21.1
2020-Aug-08 14:22 035 0 gusting 7 21.1
2020-Aug-08 14:17 049 1 gusting 6 21.1
2020-Aug-08 14:12 051 21.1
2020-Aug-08 14:07 041 0 gusting 8 21.1
2020-Aug-08 14:02 039 6 gusting 8 21.7
2020-Aug-08 13:57 037 1 gusting 7 21.1
2020-Aug-08 13:52 035 3 gusting 7 21.1
2020-Aug-08 13:47 037 3 gusting 8 21.1
2020-Aug-08 13:42 029 0 gusting 6 21.1
2020-Aug-08 13:37 027 21.1
2020-Aug-08 13:32 029 1 gusting 7 21.1
2020-Aug-08 13:27 029 0 gusting 6 21.1
2020-Aug-08 13:22 033 21.1
2020-Aug-08 13:17 041 21.1
2020-Aug-08 13:13 057 21.1
2020-Aug-08 13:08 051 21.1
2020-Aug-08 13:03 043 20.6
2020-Aug-08 12:58 055 20.6
2020-Aug-08 12:53 047 0 gusting 7 20.6
2020-Aug-08 12:48 047 0 gusting 6 20.6
2020-Aug-08 12:43 039 2 gusting 8 20.6
2020-Aug-08 12:38 041 0 gusting 6 20.6
2020-Aug-08 12:33 043 20.0
2020-Aug-08 12:28 041 20.0
2020-Aug-08 12:23 041 20.0
2020-Aug-08 12:19 039 0 gusting 6 20.0
2020-Aug-08 12:14 039 20.0
2020-Aug-08 12:09 033 20.0
2020-Aug-08 12:04 033 20.0
2020-Aug-08 11:59 037 19.4
2020-Aug-08 11:54 043 19.4
2020-Aug-08 11:49 037 19.4
2020-Aug-08 11:43 039 0 gusting 6 19.4
2020-Aug-08 11:39 047 1 gusting 7 19.4
2020-Aug-08 11:34 045 0 gusting 7 19.4
2020-Aug-08 11:29 047 4 gusting 6 18.9
2020-Aug-08 11:24 035 3 gusting 7 18.9
2020-Aug-08 11:19 039 6 gusting 7 19.4
2020-Aug-08 11:14 039 6 gusting 7 18.9
2020-Aug-08 11:09 033 6 gusting 8 19.4
2020-Aug-08 11:04 029 1 gusting 6 18.9
2020-Aug-08 10:59 029 18.9
2020-Aug-08 10:53 031 18.9
2020-Aug-08 10:48 025 0 gusting 6 18.9
2020-Aug-08 10:43 021 18.9
2020-Aug-08 10:38 011 18.9
2020-Aug-08 10:33 023 18.9
2020-Aug-08 10:29 027 18.9
2020-Aug-08 10:24 025 18.9
2020-Aug-08 10:19 023 18.9
2020-Aug-08 10:14 031 18.9
2020-Aug-08 10:09 037 18.3
2020-Aug-08 10:04 041 18.3
2020-Aug-08 09:59 043 18.3
2020-Aug-08 09:54 039 0 gusting 6 18.3
2020-Aug-08 09:49 027 0 gusting 6 18.3
2020-Aug-08 09:44 041 18.3
2020-Aug-08 09:39 033 18.3
2020-Aug-08 09:34 033 0 gusting 6 18.3
2020-Aug-08 09:29 033 0 gusting 6 18.3
2020-Aug-08 09:24 039 18.3
2020-Aug-08 09:19 049 0 gusting 6 18.3
2020-Aug-08 09:14 045 0 gusting 6 18.3
2020-Aug-08 09:09 045 18.3
2020-Aug-08 09:04 043 18.3
2020-Aug-08 08:59 047 18.3
2020-Aug-08 08:54 043 18.3
2020-Aug-08 08:49 065 18.3
2020-Aug-08 08:44 063 18.3
2020-Aug-08 08:39 049 18.3
2020-Aug-08 08:34 047 18.3
2020-Aug-08 08:29 043 18.3
2020-Aug-08 08:24 049 18.3
2020-Aug-08 08:19 041 18.3
2020-Aug-08 08:14 041 18.3
2020-Aug-08 08:08 039 18.3
2020-Aug-08 08:03 057 18.9
2020-Aug-08 07:58 067 18.9
2020-Aug-08 07:53 065 18.9
2020-Aug-08 07:48 067 18.3
2020-Aug-08 07:43 065 18.3
2020-Aug-08 07:38 065 18.9
2020-Aug-08 07:33 063 18.9
2020-Aug-08 07:28 067 18.9
2020-Aug-08 07:23 073 18.9
2020-Aug-08 07:18 065 18.9
2020-Aug-08 07:13 067 18.9
2020-Aug-08 07:08 057 0 gusting 6 18.9
2020-Aug-08 07:03 067 18.9
2020-Aug-08 06:58 067 18.9
2020-Aug-08 06:53 065 18.9
2020-Aug-08 06:48 065 18.9
2020-Aug-08 06:43 069 18.9
2020-Aug-08 06:38 071 0 gusting 6 18.9
2020-Aug-08 06:33 075 0 gusting 7 18.9
2020-Aug-08 06:28 081 6 gusting 7 18.9
2020-Aug-08 06:23 081 3 gusting 7 18.9
2020-Aug-08 06:18 085 6 gusting 7 18.9
2020-Aug-08 06:13 079 4 gusting 8 18.9
2020-Aug-08 06:08 085 6 gusting 7 18.9
2020-Aug-08 06:03 085 4 gusting 7 18.9
2020-Aug-08 05:58 085 0 gusting 6 18.9
2020-Aug-08 05:53 087 18.9
2020-Aug-08 05:48 083 0 gusting 6 18.9
2020-Aug-08 05:43 095 18.9
2020-Aug-08 05:38 101 18.9
2020-Aug-08 05:33 097 18.9
2020-Aug-08 05:28 095 18.9
2020-Aug-08 05:23 095 18.9
2020-Aug-08 05:18 083 18.9
2020-Aug-08 05:13 095 18.9
2020-Aug-08 05:08 099 18.9
2020-Aug-08 05:03 101 0 gusting 7 18.9
2020-Aug-08 04:58 095 1 gusting 7 18.9
2020-Aug-08 04:53 093 6 gusting 8 18.9
2020-Aug-08 04:48 097 7 gusting 9 18.9
2020-Aug-08 04:43 095 7 gusting 9 18.9
2020-Aug-08 04:38 095 7 gusting 9 18.9
2020-Aug-08 04:33 093 6 gusting 8 18.9
2020-Aug-08 04:28 095 7 gusting 9 18.9
2020-Aug-08 04:23 095 8 gusting 10 18.9
2020-Aug-08 04:18 097 8 gusting 11 18.9
2020-Aug-08 04:13 095 9 gusting 11 18.9
2020-Aug-08 04:08 093 9 gusting 11 18.9
2020-Aug-08 04:03 089 9 gusting 10 18.9
2020-Aug-08 03:58 085 8 gusting 10 18.9
2020-Aug-08 03:54 079 9 gusting 11 18.9
2020-Aug-08 03:49 075 8 gusting 10 18.9
2020-Aug-08 03:44 073 8 gusting 10 18.9
2020-Aug-08 03:39 077 8 gusting 10 18.9
2020-Aug-08 03:34 073 6 gusting 9 18.9
2020-Aug-08 03:29 085 6 gusting 8 18.9
2020-Aug-08 03:25 091 6 gusting 8 18.9
2020-Aug-08 03:20 097 7 gusting 9 18.9
2020-Aug-08 03:10 083 9 gusting 12 18.9
2020-Aug-08 03:05 091 10 gusting 12 18.9
2020-Aug-08 03:00 097 9 gusting 12 18.9
2020-Aug-08 02:55 099 9 gusting 11 19.4
2020-Aug-08 02:50 101 8 gusting 11 19.4
2020-Aug-08 02:45 101 8 gusting 10 19.4
2020-Aug-08 02:40 097 8 gusting 10 19.4
2020-Aug-08 02:35 095 7 gusting 9 19.4
2020-Aug-08 02:25 089 7 gusting 9 19.4
2020-Aug-08 02:21 095 7 gusting 8 19.4
2020-Aug-08 02:16 093 7 gusting 9 19.4
2020-Aug-08 02:11 093 7 gusting 9 19.4
2020-Aug-08 02:06 097 8 gusting 10 19.4
2020-Aug-08 02:01 101 8 gusting 9 19.4
2020-Aug-08 01:56 103 8 gusting 9 19.4
2020-Aug-08 01:51 103 7 gusting 9 19.4
2020-Aug-08 01:46 099 8 gusting 10 19.4
2020-Aug-08 01:41 101 8 gusting 10 19.4
2020-Aug-08 01:36 099 8 gusting 9 19.4
2020-Aug-08 01:31 093 8 gusting 10 19.4
2020-Aug-08 01:26 089 7 gusting 9 19.4
2020-Aug-08 01:21 087 7 gusting 9 19.4
2020-Aug-08 01:16 085 8 gusting 10 19.4
2020-Aug-08 01:11 085 8 gusting 10 19.4
2020-Aug-08 01:06 081 8 gusting 9 19.4
2020-Aug-08 01:00 079 8 gusting 9 19.4
2020-Aug-08 00:55 077 7 gusting 9 19.4
2020-Aug-08 00:51 069 6 gusting 8 19.4
2020-Aug-08 00:45 073 7 gusting 8 19.4
2020-Aug-08 00:41 069 7 gusting 9 19.4
2020-Aug-08 00:35 065 7 gusting 9 19.4
2020-Aug-08 00:31 069 7 gusting 9 19.4
2020-Aug-08 00:26 065 7 gusting 9 19.4
2020-Aug-08 00:21 069 7 gusting 9 19.4
2020-Aug-08 00:16 069 7 gusting 9 19.4
2020-Aug-08 00:11 067 7 gusting 9 19.4
2020-Aug-08 00:00 067 7 gusting 9 19.4
2020-Aug-07 23:54 069 6 gusting 8 19.4
2020-Aug-07 23:49 065 6 gusting 8 20.0
2020-Aug-07 23:45 055 5 gusting 7 20.0
2020-Aug-07 23:40 053 4 gusting 8 20.0
2020-Aug-07 23:34 057 4 gusting 8 20.0
2020-Aug-07 23:29 047 2 gusting 8 20.6
2020-Aug-07 23:24 043 1 gusting 7 20.6
2020-Aug-07 23:19 037 2 gusting 7 20.6
2020-Aug-07 23:15 041 1 gusting 6 20.6
2020-Aug-07 23:09 055 3 gusting 7 20.6
2020-Aug-07 23:04 055 5 gusting 8 20.6
2020-Aug-07 23:00 047 1 gusting 7 20.6
2020-Aug-07 22:54 061 1 gusting 6 20.6
2020-Aug-07 22:49 057 20.6
2020-Aug-07 22:44 059 20.6
2020-Aug-07 22:38 083 20.6
2020-Aug-07 22:34 079 20.6
2020-Aug-07 22:29 077 0 gusting 6 20.6
2020-Aug-07 22:24 089 0 gusting 6 20.6
2020-Aug-07 22:18 091 0 gusting 7 20.6
2020-Aug-07 22:13 093 6 gusting 8 20.6
2020-Aug-07 22:08 095 6 gusting 9 20.6
2020-Aug-07 22:03 099 6 gusting 8 20.6
2020-Aug-07 21:58 095 6 gusting 8 20.6
2020-Aug-07 21:53 101 6 gusting 9 21.1
2020-Aug-07 21:48 097 7 gusting 9 21.1
2020-Aug-07 21:43 099 7 gusting 9 21.1
2020-Aug-07 21:38 091 6 gusting 9 21.1
2020-Aug-07 21:33 081 6 gusting 9 21.1
2020-Aug-07 21:28 077 6 gusting 8 21.1
2020-Aug-07 21:23 077 6 gusting 9 21.7
2020-Aug-07 21:18 079 7 gusting 9 21.7
2020-Aug-07 21:13 087 8 gusting 11 21.7
2020-Aug-07 21:08 083 8 gusting 11 21.7
2020-Aug-07 21:03 081 7 gusting 10 21.7
2020-Aug-07 20:58 077 7 gusting 9 21.1
2020-Aug-07 20:54 071 7 gusting 9 21.1
2020-Aug-07 20:49 067 6 gusting 9 21.1
2020-Aug-07 20:45 059 6 gusting 8 21.7
2020-Aug-07 20:39 071 5 gusting 7 21.7
2020-Aug-07 20:30 061 0 gusting 7 22.2
2020-Aug-07 20:26 063 6 gusting 8 22.2
2020-Aug-07 20:20 067 6 gusting 8 22.8
2020-Aug-07 20:16 067 5 gusting 7 22.8
2020-Aug-07 20:10 071 1 gusting 8 22.8
2020-Aug-07 20:06 069 0 gusting 6 22.8
2020-Aug-07 20:01 067 22.8